This demonstration page uses our WeatherBlox Daily Observations layout. Learn more.

Left ArrowRight Arrow

Hourly Observations for April 2, 2020

Temp ( °F °C ) Dew Point ( °F °C ) Humidity (%) Winds ( mph kmh ) Pressure ( in mb ) Visibility ( mi km ) Precip ( " mm )
12:52 am 00:52 Mostly Cloudy 59 15 44 6.7 58 58 SE 13 20 29.80 1009 10 16 0.00 0.00
1:52 am 01:52 Cloudy 59 15 44 6.7 58 58 SSE 16 26 29.80 1009 10 16 0.00 0.00
2:52 am 02:52 Mostly Cloudy 56 13.3 44 6.7 65 65 SSE 15 24 29.80 1009 10 16 0.00 0.00
3:52 am 03:52 Mostly Cloudy 56 13.3 45 7.2 67 67 SE 14 22 29.79 1009 10 16 0.00 0.00
4:52 am 04:52 Mostly Cloudy 56 13.3 45 7.2 67 67 SSE 14 22 29.79 1009 10 16 0.00 0.00
5:52 am 05:52 Cloudy 56 13.3 45 7.2 67 67 SE 14 22 29.79 1009 10 16 0.00 0.00
6:52 am 06:52 Mostly Cloudy 54 12.2 45 7.2 72 72 SE 9 15 29.80 1009 10 16 0.00 0.00
7:52 am 07:52 Mostly Cloudy 56 13.3 45 7.2 67 67 SE 8 13 29.83 1010 10 16 0.00 0.00
8:52 am 08:52 Cloudy 58 14.4 46 7.8 65 65 SE 15 24 29.82 1010 10 16 0.00 0.00
9:52 am 09:52 Cloudy 60 15.6 46 7.8 60 60 SSE 14 22 29.82 1010 10 16 0.00 0.00
10:52 am 10:52 Cloudy 63 17.2 47 8.3 56 56 S 13 20 29.81 1010 10 16 0.00 0.00
11:52 am 11:52 Cloudy 64 17.8 47 8.3 54 54 S 15 24 29.81 1010 10 16 0.00 0.00
12:32 pm 12:32 Cloudy 50 10 41 5 71 71 N 22 35 29.83 1010 10 16 0.00 0.00
12:52 pm 12:52 Cloudy 49 9.4 40 4.4 71 71 N 23 37 29.83 1010 10 16 0.00 0.00
1:52 pm 13:52 Cloudy 47 8.3 38 3.3 71 71 NNW 24 39 29.85 1011 8 13 0.00 0.00
2:52 pm 14:52 Cloudy 43 6.1 35 1.7 74 74 NNW 21 33 29.87 1011 10 16 0.00 0.00
3:52 pm 15:52 Cloudy 41 5 34 1.1 76 76 NNW 16 26 29.91 1013 10 16 0.00 0.00
4:06 pm 16:06 Cloudy 40 4.4 33 0.6 77 77 NNW 17 28 29.93 1014 10 16 0.00 0.00
5:52 pm 17:52 Cloudy with Drizzle 34 1.1 31 -0.6 89 89 NNW 21 33 29.96 1015 4 6 0.00 0.00
7:13 pm 19:13 Cloudy with Light Freezing Drizzle 31 -0.6 29 -1.7 92 92 NNW 20 31 30.04 1017 5 8 0.00 0.00
8:49 pm 20:49 Cloudy with Light Freezing Drizzle 30 -1 28 -2 93 93 NNW 24 39 30.07 1018 7 11 0.00 0.00
8:52 pm 20:52 Cloudy with Light Freezing Drizzle 31 -0.6 28 -2.2 89 89 NNW 21 33 30.02 1017 7 11 0.00 0.00
9:50 pm 21:50 Cloudy with Light Freezing Rain 30 -1 27 -3 86 86 NNW 24 39 30.10 1019 8 13 0.00 0.00
9:52 pm 21:52 Cloudy with Light Freezing Rain 30 -1.1 27 -2.8 88 88 NNW 21 33 30.05 1018 9 14 0.00 0.00
10:33 pm 22:33 Cloudy with Light Freezing Drizzle 28 -2.2 26 -3.3 92 92 NNW 23 37 30.12 1020 10 16 0.00 0.00
10:52 pm 22:52 Cloudy with Light Freezing Drizzle 28 -2.2 25 -3.9 88 88 NNW 24 39 30.07 1018 8 13 0.00 0.00
11:52 pm 23:52 Cloudy with Light Freezing Drizzle 27 -2.8 24 -4.4 89 89 NNW 23 37 30.10 1019 10 16 0.00 0.00
11:57 pm 23:57 Cloudy 26 -3.3 23 -5 88 88 NNW 22 35 30.16 1021 10 16 0.00 0.00

Powered by AerisWeather